Vorticity
9 8 6 4 4 4 3 3 3 4 6 4 2 4 6 8 9 9 8 8 8 10 15 15 13 10 5 4 10 14 16 10 6 13 16 14 14 14 12 11 13 12 11 13 11 8 8 7 7 7 7 7 7 7 7 7 7 8 5 6 7 5 8
10 9 7 5 4 4 3 4 3 3 6 1 -0 7 10 7 6 6 6 7 9 12 15 16 14 15 14 7 6 12 17 12 5 9 16 14 12 15 13 12 13 13 13 12 11 11 8 5 7 7 7 6 5 5 7 7 7 8 6 6 7 6 9
11 10 7 5 5 4 3 4 3 2 4 4 5 10 8 5 7 6 5 6 9 10 12 13 11 13 16 11 7 12 16 12 6 7 15 15 11 15 14 12 14 14 13 10 9 10 6 4 6 6 6 6 4 6 9 9 7 7 6 6 8 8 8
11 10 7 5 4 4 3 4 3 3 4 6 6 9 9 9 9 7 6 8 7 10 12 12 11 11 17 17 10 11 13 12 9 7 14 17 14 17 18 18 21 17 11 8 7 8 4 2 5 6 6 4 4 7 9 8 5 5 6 7 10 9 6
11 9 7 5 4 4 4 3 4 4 5 7 7 10 12 11 10 8 8 10 10 13 13 12 13 12 17 19 14 10 10 11 9 4 13 18 13 15 17 20 27 25 17 9 4 5 4 3 4 7 8 7 6 7 8 6 4 5 7 7 9 8 6
10 8 6 5 4 4 4 4 4 5 5 7 7 9 10 9 9 8 8 12 15 18 17 16 18 16 15 17 16 11 6 11 10 5 13 17 12 17 14 9 17 22 17 10 5 6 6 4 5 7 9 8 5 5 6 5 5 7 8 7 8 8 7
9 8 5 4 4 5 5 4 5 5 5 8 8 8 9 8 9 8 9 13 17 21 20 19 21 21 17 16 17 13 7 9 9 5 15 17 15 22 15 4 10 10 8 9 7 7 7 5 6 6 6 6 4 5 6 5 6 7 7 8 9 8 8
8 8 6 5 5 5 5 5 5 6 6 8 8 8 9 8 9 9 9 14 21 24 19 18 23 24 19 15 17 17 12 10 7 5 16 20 19 22 12 4 10 7 6 9 6 6 6 3 5 6 5 5 4 7 8 5 6 6 6 9 9 8 8
9 9 7 7 6 5 6 6 5 6 7 8 8 8 9 8 8 9 11 16 24 25 20 21 24 23 19 16 17 20 16 13 9 7 14 19 22 25 17 9 9 6 5 8 7 7 7 5 6 7 7 6 5 6 7 5 7 7 7 9 8 6 8
8 8 8 7 6 5 6 6 5 6 8 9 9 9 9 9 9 10 11 17 24 25 27 30 24 20 19 16 18 19 14 12 9 5 10 15 15 19 21 16 12 9 6 7 9 8 8 8 7 6 9 8 4 5 6 6 7 8 8 8 5 5 9
8 8 8 7 6 6 6 6 6 7 9 10 10 9 9 9 9 10 12 18 24 23 29 33 23 18 20 18 21 19 11 12 10 3 8 17 14 11 13 13 11 9 7 8 9 8 8 9 7 9 11 6 3 6 7 5 7 10 9 8 6 6 8
8 7 7 7 7 7 7 7 7 8 10 10 9 8 8 8 9 10 11 19 26 22 24 29 22 19 23 22 22 20 12 12 11 4 6 16 18 14 11 11 9 9 9 10 10 11 11 9 9 12 10 3 3 9 9 5 7 10 8 6 7 7 9
9 7 7 7 7 7 7 7 7 10 9 9 8 6 6 8 8 10 11 19 29 24 17 22 21 20 25 22 19 16 12 11 11 8 6 9 15 16 12 11 10 9 10 9 9 11 11 8 9 13 9 3 5 9 8 6 8 10 6 5 5 6 9
9 8 8 7 7 7 7 7 9 10 8 7 8 7 6 7 7 10 10 16 31 28 15 17 21 20 21 19 17 17 15 12 10 7 5 6 12 15 14 13 11 10 11 10 10 11 11 9 11 13 7 3 7 12 10 8 9 10 8 7 7 8 10
9 8 7 7 8 7 6 8 9 8 7 7 9 9 6 5 5 10 10 13 29 33 17 14 21 20 18 16 17 20 19 14 10 6 4 9 14 14 14 12 10 10 11 13 13 10 9 10 11 10 4 2 8 12 11 7 6 10 12 10 8 7 8
10 8 7 7 7 7 6 9 9 7 7 7 9 10 8 6 5 8 11 12 25 34 22 12 18 21 18 12 9 15 18 13 10 10 8 11 16 16 14 11 10 12 13 14 13 9 9 10 8 7 3 3 11 13 9 6 5 10 13 11 9 9 10
10 8 7 7 7 7 7 9 9 7 6 7 8 9 9 8 5 5 11 13 20 32 26 14 15 17 9 -0 -3 6 16 15 11 11 11 11 16 18 15 11 11 12 13 14 11 8 10 9 6 7 7 9 15 16 9 5 6 9 11 10 9 8 9
11 8 8 7 7 7 7 9 9 7 7 7 7 8 9 10 7 4 9 12 15 26 28 18 14 11 2 -4 -2 4 14 18 14 10 9 9 12 14 11 8 7 8 9 10 9 8 9 10 11 12 9 7 13 15 9 6 8 10 10 11 9 7 8
11 10 8 8 8 7 8 10 8 7 7 7 7 8 9 10 9 5 6 10 12 20 27 23 14 11 7 4 5 6 9 13 13 11 13 14 14 12 8 7 9 11 9 7 8 8 6 6 8 9 7 6 10 12 8 6 8 8 7 9 10 8 8
11 10 8 8 8 8 9 9 8 8 7 6 7 8 8 10 11 7 5 7 10 14 23 26 19 14 14 12 11 14 14 9 8 11 14 14 13 12 12 13 13 15 11 5 5 7 7 6 4 3 7 10 10 11 10 7 7 7 6 6 5 5 4
11 9 8 8 8 7 8 8 7 8 8 7 7 8 9 10 11 10 6 5 8 10 15 24 24 19 17 15 12 14 15 11 8 9 11 11 13 15 16 14 11 12 12 8 9 11 11 10 9 8 9 11 13 16 16 12 10 8 4 4 9 11 7
10 9 8 8 8 8 8 7 6 8 8 7 7 9 10 10 10 11 8 5 8 8 8 17 24 21 18 17 14 10 10 10 8 7 11 14 15 15 15 13 11 12 14 13 13 16 15 10 10 14 12 10 13 16 14 11 11 9 3 5 14 15 6
10 10 9 8 8 8 8 7 6 8 8 6 7 9 10 10 11 12 11 8 8 8 8 11 19 24 21 17 17 14 11 12 12 9 10 12 10 8 9 10 11 12 15 15 11 13 15 12 11 14 13 11 14 15 12 8 6 8 9 9 14 13 6
11 11 10 8 8 8 7 7 6 7 8 7 7 9 10 11 12 12 12 10 8 10 9 8 15 26 23 13 13 14 11 10 10 8 8 9 11 12 11 9 10 10 12 14 12 11 11 11 12 13 11 12 15 16 18 14 8 9 12 11 10 10 7
12 11 10 9 9 7 6 6 6 7 9 8 8 9 10 10 10 11 12 10 10 11 10 10 15 21 21 17 15 15 15 14 11 9 11 12 12 14 14 12 11 11 11 12 14 14 12 14 19 15 9 9 11 12 17 19 15 12 11 10 8 8 9
11 11 10 9 8 7 6 5 6 8 10 9 8 8 9 8 8 9 9 8 10 10 9 15 18 11 12 21 22 17 18 21 18 13 11 10 9 11 13 12 11 12 13 13 12 11 10 14 16 12 8 8 8 13 19 18 13 9 8 9 9 8 7
9 9 9 8 7 7 6 6 7 9 11 10 8 9 9 8 5 5 6 6 7 8 8 13 16 7 4 14 22 20 19 21 22 20 15 11 9 7 8 9 11 12 12 11 10 9 11 12 8 5 7 9 11 19 23 16 9 7 9 11 12 11 8
8 7 7 7 7 6 6 6 7 9 11 10 8 9 9 7 4 3 5 5 5 7 6 8 16 18 11 6 9 17 23 22 17 17 20 16 12 10 9 8 10 13 14 12 12 14 16 12 9 9 13 15 17 20 19 13 10 10 10 9 8 9 11
7 7 6 5 5 5 6 8 9 10 12 10 8 9 9 7 4 2 4 6 6 7 6 7 16 21 12 2 1 9 22 24 12 7 15 19 17 17 16 12 13 17 18 13 10 14 14 10 11 18 23 22 18 14 10 6 8 14 14 11 10 11 11
8 7 7 6 6 7 9 11 12 12 12 10 8 9 9 8 5 3 4 6 7 9 8 8 13 13 5 2 6 8 13 21 20 14 10 10 13 13 13 14 16 18 17 12 11 16 19 17 13 10 12 19 21 18 14 9 10 15 17 12 9 11 10
11 10 9 9 10 11 11 13 14 13 12 10 8 9 10 10 8 6 5 6 8 10 10 10 11 10 5 3 8 10 9 15 25 25 13 7 10 13 14 16 15 14 15 16 16 18 19 21 19 11 10 19 24 17 11 11 11 8 9 10 4 2 8
12 12 11 10 9 10 11 12 14 14 12 9 8 9 11 11 9 8 9 10 10 11 13 12 10 10 8 6 6 10 10 11 17 24 23 19 14 10 9 9 8 9 12 12 11 9 7 10 17 17 13 13 15 11 3 8 15 7 3 11 10 4 7
10 10 9 7 6 5 6 8 10 12 12 10 9 11 12 10 8 9 12 13 13 12 13 14 12 9 9 9 7 7 9 9 9 14 20 22 18 13 10 7 6 10 14 14 13 13 11 11 15 19 15 7 9 15 10 7 14 12 5 2 -0 -2 1
9 8 7 6 4 4 4 4 5 7 10 12 12 11 10 7 5 8 12 13 13 13 12 13 13 10 8 8 7 6 6 7 7 8 11 14 17 20 19 12 7 13 20 19 14 15 16 13 10 12 14 7 3 9 10 4 2 4 5 5 2 5 10
6 6 7 8 8 7 7 7 7 6 8 10 12 10 7 4 3 4 8 10 11 10 10 10 11 10 8 7 6 6 6 6 6 6 7 8 11 14 16 12 9 16 21 12 4 10 18 17 13 13 13 12 7 2 -1 -3 -4 -1 5 9 10 10 11
5 6 7 7 6 6 7 8 9 10 10 10 10 9 6 3 3 4 6 8 9 9 8 8 9 10 10 9 8 7 7 8 8 7 6 7 7 7 9 10 9 13 16 7 0 7 11 8 9 12 12 15 16 9 1 -1 3 7 7 5 5 7 8
5 4 4 5 8 11 14 17 19 19 17 15 13 13 11 9 9 10 11 11 11 11 10 9 9 9 10 11 11 10 9 8 9 9 8 8 8 6 5 6 6 6 10 9 7 10 8 1 -0 3 4 7 11 12 11 8 5 2 1 1 5 7 8
Height
5809 5810 5810 5809 5809 5809 5807 5805 5803 5800 5797 5794 5793 5792 5790 5790 5788 5787 5785 5784 5783 5782 5781 5780 5778 5777 5777 5776 5775 5775 5774 5773 5773 5773 5772 5772 5771 5772 5772 5773 5775 5776 5777 5779 5781 5782 5783 5785 5787 5788 5789 5790 5790 5791 5792 5792 5793 5793 5794 5795 5796 5796 5796
5806 5807 5807 5807 5807 5806 5805 5803 5800 5798 5795 5791 5789 5789 5787 5786 5784 5782 5781 5779 5778 5777 5776 5775 5774 5773 5772 5772 5772 5772 5771 5769 5769 5768 5768 5769 5768 5769 5769 5770 5771 5773 5774 5776 5778 5780 5781 5783 5785 5786 5787 5787 5788 5789 5790 5791 5791 5792 5792 5793 5794 5794 5794
5803 5804 5804 5804 5804 5803 5802 5800 5797 5796 5793 5789 5786 5785 5784 5782 5781 5779 5777 5775 5772 5771 5771 5771 5770 5769 5768 5767 5768 5768 5767 5766 5765 5764 5764 5764 5765 5765 5766 5767 5768 5770 5771 5773 5775 5777 5779 5780 5782 5783 5784 5785 5786 5787 5788 5789 5790 5790 5790 5791 5791 5792 5792
5800 5800 5801 5801 5800 5800 5799 5797 5795 5793 5792 5788 5785 5783 5782 5780 5778 5776 5775 5772 5770 5767 5766 5765 5765 5764 5763 5763 5763 5763 5763 5763 5762 5761 5760 5760 5761 5762 5763 5764 5765 5766 5768 5771 5773 5775 5776 5778 5779 5780 5782 5783 5784 5785 5786 5787 5788 5789 5789 5789 5789 5790 5790
5797 5797 5797 5797 5797 5797 5795 5794 5793 5791 5789 5787 5784 5781 5779 5777 5775 5773 5771 5769 5767 5764 5762 5759 5759 5760 5759 5758 5759 5759 5759 5759 5758 5758 5757 5757 5758 5759 5760 5760 5761 5763 5765 5768 5770 5772 5773 5775 5776 5778 5779 5780 5782 5783 5784 5785 5786 5786 5786 5787 5787 5788 5788
5795 5794 5794 5794 5794 5793 5792 5791 5790 5788 5787 5784 5782 5779 5776 5774 5771 5769 5767 5765 5763 5760 5757 5755 5754 5755 5754 5753 5754 5755 5755 5755 5754 5754 5754 5753 5754 5755 5757 5757 5759 5760 5763 5765 5767 5769 5770 5772 5774 5775 5777 5778 5779 5780 5781 5782 5783 5784 5784 5785 5785 5786 5786
5792 5792 5791 5791 5791 5790 5789 5788 5787 5786 5784 5782 5779 5776 5773 5770 5768 5765 5763 5761 5758 5756 5753 5750 5749 5749 5750 5749 5749 5750 5751 5751 5750 5750 5751 5751 5751 5752 5753 5755 5756 5758 5760 5762 5765 5766 5768 5769 5771 5772 5773 5775 5776 5778 5779 5779 5780 5781 5782 5782 5783 5783 5784
5789 5789 5789 5788 5788 5787 5786 5785 5784 5783 5781 5779 5777 5774 5770 5767 5764 5762 5759 5756 5753 5751 5748 5746 5744 5744 5745 5745 5745 5746 5747 5748 5748 5747 5748 5748 5748 5749 5750 5752 5754 5755 5757 5760 5763 5764 5765 5766 5767 5768 5770 5771 5773 5775 5776 5776 5777 5778 5779 5780 5780 5781 5781
5787 5786 5786 5785 5785 5784 5784 5783 5781 5780 5779 5777 5774 5771 5768 5764 5761 5758 5755 5752 5749 5747 5744 5742 5740 5740 5741 5741 5741 5742 5743 5745 5746 5746 5745 5745 5746 5747 5748 5750 5751 5753 5754 5757 5760 5761 5763 5764 5765 5766 5767 5768 5770 5771 5772 5773 5774 5775 5776 5777 5778 5778 5779
5784 5783 5782 5782 5782 5781 5781 5780 5779 5777 5776 5774 5771 5768 5765 5761 5758 5755 5752 5748 5745 5743 5740 5738 5736 5736 5737 5737 5737 5739 5740 5742 5743 5744 5743 5744 5745 5746 5747 5748 5749 5750 5752 5754 5757 5759 5761 5762 5762 5763 5764 5765 5766 5768 5770 5770 5771 5772 5773 5774 5775 5775 5776
5781 5780 5779 5779 5778 5778 5777 5777 5776 5774 5773 5771 5768 5765 5762 5759 5756 5752 5749 5745 5742 5740 5737 5734 5734 5733 5734 5734 5735 5736 5737 5739 5741 5741 5741 5742 5743 5744 5745 5746 5747 5748 5750 5752 5754 5757 5758 5758 5759 5760 5761 5762 5764 5765 5766 5767 5768 5769 5771 5771 5772 5772 5772
5778 5777 5776 5776 5775 5775 5774 5773 5772 5771 5770 5768 5765 5762 5759 5756 5753 5750 5746 5742 5739 5737 5734 5732 5732 5731 5731 5732 5733 5734 5735 5737 5739 5740 5740 5740 5741 5742 5743 5745 5746 5747 5748 5749 5751 5754 5755 5756 5756 5758 5758 5759 5761 5762 5763 5764 5765 5767 5768 5769 5769 5769 5770
5775 5774 5774 5773 5773 5772 5771 5770 5769 5768 5767 5765 5762 5760 5757 5754 5751 5748 5744 5741 5737 5734 5732 5731 5730 5729 5729 5730 5731 5732 5734 5735 5737 5738 5739 5739 5740 5740 5741 5743 5744 5745 5746 5747 5748 5750 5752 5753 5754 5755 5756 5757 5758 5759 5761 5762 5762 5764 5765 5765 5765 5766 5767
5773 5772 5771 5770 5770 5769 5768 5767 5766 5765 5764 5762 5760 5757 5755 5752 5749 5746 5743 5739 5736 5733 5730 5729 5728 5728 5728 5728 5729 5731 5732 5734 5735 5737 5738 5738 5739 5739 5740 5741 5741 5742 5743 5744 5745 5746 5748 5749 5750 5751 5752 5754 5755 5757 5758 5759 5760 5761 5762 5762 5762 5764 5765
5770 5769 5768 5767 5767 5766 5766 5765 5764 5762 5761 5759 5757 5755 5753 5750 5747 5745 5741 5738 5735 5732 5730 5728 5727 5727 5727 5727 5728 5730 5731 5732 5734 5735 5736 5737 5737 5738 5738 5738 5739 5740 5740 5741 5742 5743 5744 5746 5747 5748 5749 5751 5752 5753 5754 5756 5756 5758 5759 5758 5759 5761 5761
5767 5766 5765 5765 5764 5763 5763 5762 5761 5760 5759 5757 5755 5753 5751 5748 5746 5743 5740 5737 5734 5732 5729 5728 5727 5726 5726 5727 5728 5729 5730 5731 5732 5733 5734 5734 5735 5735 5736 5736 5736 5737 5737 5738 5739 5740 5742 5743 5745 5746 5748 5749 5749 5749 5750 5751 5752 5754 5755 5755 5756 5757 5758
5764 5763 5763 5762 5761 5761 5760 5759 5759 5758 5756 5755 5753 5751 5749 5747 5744 5741 5739 5736 5733 5731 5729 5728 5727 5726 5726 5726 5726 5727 5728 5728 5729 5730 5731 5731 5731 5732 5733 5734 5734 5734 5735 5736 5737 5738 5739 5740 5742 5744 5745 5745 5745 5745 5747 5748 5749 5750 5751 5752 5753 5754 5755
5761 5760 5760 5759 5759 5758 5757 5757 5756 5755 5754 5753 5751 5749 5748 5745 5743 5740 5737 5735 5732 5730 5728 5727 5726 5726 5725 5725 5724 5725 5725 5726 5727 5727 5728 5728 5729 5730 5731 5732 5732 5732 5732 5734 5735 5735 5735 5736 5738 5740 5741 5741 5742 5743 5744 5745 5745 5745 5747 5749 5750 5751 5752
5758 5758 5757 5756 5756 5755 5755 5755 5754 5753 5752 5750 5749 5747 5746 5744 5741 5739 5736 5733 5731 5729 5728 5726 5725 5724 5723 5723 5722 5722 5722 5723 5724 5724 5724 5725 5726 5728 5728 5729 5729 5729 5730 5731 5732 5732 5733 5733 5734 5736 5737 5738 5738 5739 5740 5741 5742 5742 5744 5745 5746 5748 5749
5755 5755 5754 5754 5753 5753 5753 5752 5752 5751 5750 5748 5747 5745 5744 5742 5740 5737 5735 5732 5730 5728 5727 5725 5724 5723 5722 5721 5721 5720 5720 5720 5721 5722 5722 5723 5724 5725 5725 5726 5726 5727 5727 5728 5729 5729 5730 5731 5731 5732 5733 5734 5735 5737 5737 5738 5739 5740 5741 5742 5743 5744 5744
5752 5752 5752 5751 5751 5750 5750 5750 5749 5749 5747 5746 5745 5743 5742 5740 5738 5735 5733 5731 5729 5727 5725 5724 5722 5721 5720 5718 5718 5718 5718 5718 5719 5720 5720 5721 5721 5722 5722 5724 5725 5725 5725 5726 5726 5727 5728 5729 5729 5730 5731 5731 5732 5733 5734 5735 5736 5737 5737 5738 5739 5740 5741
5749 5749 5749 5748 5748 5748 5747 5747 5746 5746 5745 5744 5742 5741 5740 5738 5735 5733 5731 5730 5728 5726 5724 5722 5720 5719 5718 5716 5715 5715 5715 5716 5717 5718 5718 5718 5719 5719 5720 5721 5722 5723 5722 5723 5723 5724 5725 5726 5727 5728 5728 5729 5729 5729 5730 5731 5732 5733 5734 5734 5736 5737 5738
5747 5746 5746 5745 5745 5745 5744 5744 5743 5743 5742 5741 5740 5739 5737 5735 5734 5732 5730 5728 5726 5724 5722 5720 5719 5717 5715 5714 5714 5713 5713 5714 5715 5716 5715 5716 5717 5717 5717 5718 5719 5719 5719 5719 5719 5720 5721 5723 5724 5724 5725 5725 5726 5727 5727 5728 5729 5730 5730 5731 5732 5733 5734
5744 5743 5743 5742 5742 5742 5741 5741 5741 5740 5739 5738 5737 5736 5735 5733 5732 5730 5728 5726 5724 5722 5720 5719 5717 5714 5712 5712 5712 5712 5712 5712 5713 5713 5713 5714 5714 5714 5714 5715 5716 5716 5716 5716 5716 5716 5717 5719 5720 5720 5720 5721 5722 5723 5724 5725 5726 5727 5728 5729 5729 5730 5731
5741 5740 5740 5739 5739 5739 5739 5738 5738 5737 5737 5736 5735 5734 5732 5731 5729 5728 5726 5724 5722 5720 5719 5717 5715 5712 5711 5711 5711 5711 5710 5710 5710 5710 5710 5710 5710 5710 5711 5712 5713 5713 5713 5713 5713 5713 5714 5715 5717 5717 5717 5717 5718 5720 5721 5721 5722 5723 5725 5726 5726 5727 5729
5738 5737 5737 5737 5736 5736 5736 5736 5735 5735 5734 5733 5732 5731 5730 5729 5727 5726 5725 5723 5721 5719 5717 5715 5714 5712 5710 5710 5709 5709 5708 5708 5707 5708 5707 5707 5708 5708 5708 5709 5710 5710 5710 5710 5711 5711 5711 5712 5713 5714 5714 5714 5715 5716 5717 5718 5719 5720 5722 5724 5724 5725 5725
5735 5735 5734 5734 5734 5733 5733 5733 5732 5732 5731 5730 5730 5729 5728 5727 5725 5724 5723 5721 5719 5717 5715 5714 5713 5711 5710 5709 5708 5707 5706 5706 5705 5705 5705 5705 5705 5706 5706 5706 5707 5707 5707 5707 5708 5708 5709 5710 5711 5711 5711 5711 5712 5713 5714 5715 5717 5718 5719 5720 5721 5721 5722
5732 5732 5731 5731 5731 5730 5730 5730 5730 5729 5728 5728 5727 5726 5725 5724 5723 5722 5721 5719 5717 5716 5714 5713 5712 5710 5709 5707 5706 5705 5704 5704 5703 5703 5703 5703 5703 5704 5704 5704 5704 5705 5705 5705 5705 5705 5706 5707 5708 5708 5708 5708 5709 5710 5712 5713 5714 5715 5716 5716 5716 5718 5719
5729 5729 5728 5728 5728 5727 5727 5727 5727 5726 5726 5725 5724 5723 5723 5722 5720 5719 5718 5717 5715 5714 5713 5712 5710 5708 5707 5706 5705 5704 5703 5702 5702 5702 5702 5701 5701 5701 5701 5701 5701 5702 5702 5702 5702 5702 5703 5704 5705 5705 5705 5705 5706 5708 5709 5710 5711 5712 5713 5713 5713 5714 5714
5726 5726 5725 5725 5724 5724 5724 5723 5723 5723 5723 5722 5721 5721 5720 5719 5718 5717 5716 5715 5713 5712 5711 5710 5709 5707 5706 5705 5704 5703 5701 5701 5700 5700 5700 5699 5699 5699 5699 5699 5699 5699 5699 5699 5700 5700 5700 5701 5702 5702 5702 5703 5704 5705 5707 5708 5708 5709 5710 5711 5711 5711 5710
5723 5722 5722 5721 5721 5721 5720 5720 5720 5720 5719 5719 5718 5718 5717 5716 5716 5715 5714 5712 5711 5710 5709 5708 5707 5706 5705 5704 5703 5701 5700 5699 5698 5698 5698 5697 5697 5697 5697 5697 5697 5697 5697 5697 5698 5698 5698 5698 5699 5700 5700 5700 5701 5702 5704 5705 5706 5706 5706 5708 5708 5708 5708
5720 5719 5719 5718 5718 5717 5717 5717 5716 5716 5716 5716 5715 5715 5714 5713 5713 5712 5711 5710 5709 5708 5707 5706 5706 5704 5703 5702 5702 5700 5699 5698 5697 5697 5696 5695 5695 5695 5695 5695 5695 5695 5695 5695 5695 5696 5696 5696 5697 5697 5698 5698 5698 5699 5700 5701 5702 5702 5703 5703 5704 5705 5705
5717 5716 5716 5715 5715 5714 5714 5714 5713 5713 5713 5712 5712 5712 5711 5711 5710 5709 5709 5708 5707 5706 5705 5704 5704 5703 5702 5701 5700 5699 5698 5697 5696 5695 5695 5694 5694 5693 5692 5692 5692 5692 5692 5692 5693 5693 5693 5694 5694 5695 5695 5695 5695 5696 5696 5696 5697 5698 5698 5698 5699 5700 5701
5714 5713 5713 5712 5712 5711 5711 5711 5710 5710 5710 5709 5709 5709 5708 5708 5708 5707 5706 5705 5704 5703 5703 5702 5702 5701 5700 5699 5698 5697 5697 5695 5695 5694 5693 5693 5692 5692 5691 5691 5690 5690 5690 5690 5690 5690 5691 5691 5691 5692 5692 5692 5692 5692 5692 5693 5693 5694 5695 5695 5695 5696 5696
5711 5710 5710 5709 5709 5708 5708 5707 5707 5707 5706 5706 5706 5705 5705 5705 5704 5704 5703 5703 5702 5701 5700 5700 5700 5699 5698 5697 5696 5695 5695 5694 5693 5692 5692 5691 5691 5690 5690 5690 5689 5689 5689 5688 5688 5688 5688 5688 5688 5689 5689 5689 5689 5689 5689 5689 5690 5691 5691 5692 5692 5692 5692
5707 5707 5707 5706 5705 5705 5704 5704 5704 5703 5703 5703 5702 5702 5702 5702 5701 5701 5700 5700 5699 5699 5698 5697 5697 5697 5696 5695 5694 5693 5693 5692 5691 5690 5690 5689 5689 5688 5688 5688 5688 5688 5688 5687 5686 5686 5686 5686 5686 5686 5686 5686 5686 5686 5686 5686 5686 5687 5687 5687 5687 5687 5687
5704 5704 5703 5703 5702 5701 5701 5700 5700 5700 5699 5699 5699 5699 5698 5698 5698 5698 5697 5697 5696 5695 5695 5694 5694 5693 5693 5693 5692 5691 5690 5690 5689 5688 5688 5687 5686 5686 5685 5685 5686 5686 5686 5685 5685 5684 5684 5683 5683 5683 5683 5683 5683 5683 5683 5683 5682 5682 5682 5682 5682 5681 5681